STARLINK-32038, 60281

Orbit data source: Space-Track

STARLINK-32038, 60281 is a payload satellite owned by SpaceX/Seattle (US) in LEO that was launched on Sun, 28 Jul 2024 UTC via an FALCON 9 launch vehicle from the Air Force Eastern Test Range (AFETR). Payload-class satellites include a variety of spacecraft equipped with specific instruments for various scientific and technological missions. These include communications satellites like Starlink; space stations such as the ISS; scientific satellites like the Hubble; Earth observation satellites from companies like Planet Labs, Umbra, and HawkEye 360; GPS; miniature CubeSats for education and research; and military/defense satellites.

Loading next visibility...
Identifier
60281, 2024-132D
Orbit
LEO
Country
Flag of USUS
Related business
Manufacturer
SpaceX/Seattle
Mission
Operational spacecraft
Bus & Motor
STARLINK V2M, Unknown motor
Mass
730 kg wet, ~700 kg dry
Launch date (UTC)
2024-07-28 (1 year ago)
Launch vehicle
FALCON 9
Launch site
Air Force Eastern Test Range (AFETR)
Object type
Payload
Rocket body
Debris
Shape & HBR
Unknown
Radar Cross Section
Large (>1 m²)

Expand to show TLE details & history
Last TLE update: 23 hours ago

TLE from 23 hours ago
0 STARLINK-32038
1 60281U 24132D   25258.39372037  .00000295  00000-0  22089-4 0  9996
2 60281  53.1599 146.5324 0001053  95.3432 264.7688 15.30200979 64727
Epoch: 2025-09-15T09:26Z
TLE epoch observation values (Epoch: 2025-09-15T09:26:57.439Z)
Latitude
-0.00012°
Longitude
10.19397°
Altitude
476.178 km
Speed
7.629 km/s
True Right ascension
09h 46m 07s
True Declination
0° 00' 00"
Sunlit
Object was in daylight at epoch
Visualization orbit readout
Latitude
Unknown
Longitude
Unknown
Altitude
Unknown
Speed
Unknown
Apparent Right ascension
Unknown
Apparent Declination
Unknown
Sunlit
N/A
Visualization observer readout
Local Sidereal Time
00:46:45
Azimuth
Unknown
Elevation
Unknown
Doppler factor
Unknown
Orbital elements
Apogee altitude
476.19 km
Perigee altitude
474.747 km
Semi-major axis
6,853.606 km
Eccentricity
0.00011
Inclination
53.1599°
RAAN
146.5324°
Arg. of periapsis
95.3432°
True anomaly
264.75678°
Mean anomaly
264.7688°
Eccentric anomaly
264.76279°
Mean motion
3.82529 °/min
Orbital period
94.11 mins
BSTAR
0.000022089
Loading maneuver chart data...
Computing Atmospheric mass density...
Loading historical data...
Loading historical data...
Loading historical data...
Loading historical data...
Loading historical data...
Loading historical data...
Loading historical data...

Documentation

Showing up to 5 results
|